Time,TemperatureF,DewpointF,PressureIn,WindDirection,WindDirectionDegrees,WindSpeedMPH,WindSpeedGustMPH,Humidity,HourlyPrecipIn,Conditions,Clouds,dailyrainin,SoftwareType,DateUTC
2013-10-13 00:01:00,57.0,52.9,30.16,SW,235,0.0,0.0,86,0.00,,CLR,0.00,VWS V14.01,2013-10-13 05:01:00,
2013-10-13 00:09:00,56.8,52.7,30.16,SW,235,0.0,0.0,86,0.00,,CLR,0.00,VWS V14.01,2013-10-13 05:09:00,
2013-10-13 00:14:00,56.7,52.6,30.16,SW,235,0.0,0.0,86,0.00,,CLR,0.00,VWS V14.01,2013-10-13 05:14:00,
2013-10-13 00:19:00,56.6,52.5,30.17,SW,235,0.0,0.0,86,0.00,,CLR,0.00,VWS V14.01,2013-10-13 05:19:00,
2013-10-13 00:24:00,56.4,52.3,30.17,SW,235,0.0,0.0,86,0.00,,CLR,0.00,VWS V14.01,2013-10-13 05:24:00,
2013-10-13 00:29:00,56.3,52.2,30.17,SW,235,0.0,0.0,86,0.00,,CLR,0.00,VWS V14.01,2013-10-13 05:29:00,
2013-10-13 00:34:00,56.1,52.0,30.17,SW,235,0.0,0.0,86,0.00,,CLR,0.00,VWS V14.01,2013-10-13 05:34:00,
2013-10-13 00:39:00,56.0,51.9,30.17,SW,235,0.0,0.0,86,0.00,,CLR,0.00,VWS V14.01,2013-10-13 05:39:00,
2013-10-13 00:44:00,55.9,51.8,30.17,SW,235,0.0,0.0,86,0.00,,CLR,0.00,VWS V14.01,2013-10-13 05:44:00,
2013-10-13 00:49:00,55.7,51.6,30.17,SW,235,0.0,0.0,86,0.00,,CLR,0.00,VWS V14.01,2013-10-13 05:49:00,
2013-10-13 00:54:00,55.5,51.4,30.17,SW,235,0.0,0.0,86,0.00,,CLR,0.00,VWS V14.01,2013-10-13 05:54:00,
2013-10-13 00:59:00,55.3,51.2,30.18,SW,235,0.0,0.0,86,0.00,,CLR,0.00,VWS V14.01,2013-10-13 05:59:00,
2013-10-13 01:04:00,55.1,51.0,30.18,SW,235,0.0,0.0,86,0.00,,CLR,0.00,VWS V14.01,2013-10-13 06:04:00,
2013-10-13 01:09:00,54.8,50.7,30.18,SW,235,0.0,0.0,86,0.00,,CLR,0.00,VWS V14.01,2013-10-13 06:09:00,
2013-10-13 01:14:00,54.6,50.5,30.18,SW,235,0.0,0.0,86,0.00,,CLR,0.00,VWS V14.01,2013-10-13 06:14:00,
2013-10-13 01:19:00,54.4,50.3,30.18,SW,235,0.0,0.0,86,0.00,,CLR,0.00,VWS V14.01,2013-10-13 06:19:00,
2013-10-13 01:24:00,54.1,50.0,30.19,SW,235,0.0,0.0,86,0.00,,CLR,0.00,VWS V14.01,2013-10-13 06:24:00,
2013-10-13 01:29:00,53.9,50.1,30.19,SW,235,0.0,0.0,87,0.00,,CLR,0.00,VWS V14.01,2013-10-13 06:29:00,
2013-10-13 01:34:00,53.7,49.6,30.20,SW,235,0.0,0.0,86,0.00,,CLR,0.00,VWS V14.01,2013-10-13 06:34:00,
2013-10-13 01:39:00,53.5,49.4,30.19,SW,235,0.0,0.0,86,0.00,,CLR,0.00,VWS V14.01,2013-10-13 06:39:00,
2013-10-13 01:44:00,53.3,49.5,30.19,SW,235,0.0,0.0,87,0.00,,CLR,0.00,VWS V14.01,2013-10-13 06:44:00,
2013-10-13 01:49:00,53.2,49.4,30.20,SW,235,0.0,0.0,87,0.00,,CLR,0.00,VWS V14.01,2013-10-13 06:49:00,
2013-10-13 01:54:00,53.1,49.0,30.20,SW,235,0.0,0.0,86,0.00,,CLR,0.00,VWS V14.01,2013-10-13 06:54:00,
2013-10-13 01:59:00,53.0,49.2,30.20,SW,235,0.0,0.0,87,0.00,,CLR,0.00,VWS V14.01,2013-10-13 06:59:00,
2013-10-13 02:04:00,52.8,49.0,30.20,SW,235,0.0,0.0,87,0.00,,CLR,0.00,VWS V14.01,2013-10-13 07:04:00,
2013-10-13 02:09:00,52.7,49.0,30.20,SW,235,0.0,0.0,87,0.00,,CLR,0.00,VWS V14.01,2013-10-13 07:09:00,
2013-10-13 02:14:00,52.6,48.8,30.20,SW,235,0.0,0.0,87,0.00,,CLR,0.00,VWS V14.01,2013-10-13 07:14:00,
2013-10-13 02:19:00,52.5,48.8,30.20,SW,235,0.0,0.0,87,0.00,,CLR,0.00,VWS V14.01,2013-10-13 07:19:00,
2013-10-13 02:24:00,52.5,48.8,30.20,SW,235,0.0,0.0,87,0.00,,CLR,0.00,VWS V14.01,2013-10-13 07:24:00,
2013-10-13 02:29:00,52.4,48.7,30.20,SW,235,0.0,0.0,87,0.00,,CLR,0.00,VWS V14.01,2013-10-13 07:29:00,
2013-10-13 02:34:00,52.3,48.5,30.20,SW,235,0.0,0.0,87,0.00,,CLR,0.00,VWS V14.01,2013-10-13 07:34:00,
2013-10-13 02:39:00,52.2,48.5,30.20,SW,235,0.0,0.0,87,0.00,,CLR,0.00,VWS V14.01,2013-10-13 07:39:00,
2013-10-13 02:44:00,52.2,48.5,30.20,SW,235,0.0,0.0,87,0.00,,CLR,0.00,VWS V14.01,2013-10-13 07:44:00,
2013-10-13 02:49:00,52.1,48.4,30.20,SW,235,0.0,0.0,87,0.00,,CLR,0.00,VWS V14.01,2013-10-13 07:49:00,
2013-10-13 02:54:00,51.9,48.2,30.21,SW,235,0.0,0.0,87,0.00,,CLR,0.00,VWS V14.01,2013-10-13 07:54:00,
2013-10-13 02:59:00,51.8,48.1,30.21,SW,235,0.0,0.0,87,0.00,,CLR,0.00,VWS V14.01,2013-10-13 07:59:00,
2013-10-13 03:04:00,51.6,47.6,30.21,SW,235,0.0,0.0,86,0.00,,CLR,0.00,VWS V14.01,2013-10-13 08:04:00,
2013-10-13 03:09:00,51.5,47.8,30.21,SW,235,0.0,0.0,87,0.00,,CLR,0.00,VWS V14.01,2013-10-13 08:09:00,
2013-10-13 03:14:00,51.5,47.8,30.20,SW,235,0.0,0.0,87,0.00,,CLR,0.00,VWS V14.01,2013-10-13 08:14:00,
2013-10-13 03:19:00,51.4,47.7,30.21,SW,235,0.0,0.0,87,0.00,,CLR,0.00,VWS V14.01,2013-10-13 08:19:00,
2013-10-13 03:24:00,51.2,47.5,30.21,SW,235,0.0,0.0,87,0.00,,CLR,0.00,VWS V14.01,2013-10-13 08:24:00,
2013-10-13 03:29:00,51.1,47.4,30.21,SW,235,0.0,0.0,87,0.00,,CLR,0.00,VWS V14.01,2013-10-13 08:29:00,
2013-10-13 03:34:00,51.0,47.3,30.21,SW,235,0.0,0.0,87,0.00,,CLR,0.00,VWS V14.01,2013-10-13 08:34:00,
2013-10-13 03:39:00,50.9,47.2,30.21,SW,235,0.0,0.0,87,0.00,,CLR,0.00,VWS V14.01,2013-10-13 08:39:00,
2013-10-13 03:44:00,50.7,47.0,30.21,SW,235,0.0,0.0,87,0.00,,CLR,0.00,VWS V14.01,2013-10-13 08:44:00,
2013-10-13 03:49:00,50.6,46.9,30.21,SW,235,0.0,0.0,87,0.00,,CLR,0.00,VWS V14.01,2013-10-13 08:49:00,
2013-10-13 03:54:00,50.6,46.9,30.22,SW,235,0.0,0.0,87,0.00,,CLR,0.00,VWS V14.01,2013-10-13 08:54:00,
2013-10-13 03:59:00,50.4,46.7,30.22,SW,235,0.0,0.0,87,0.00,,CLR,0.00,VWS V14.01,2013-10-13 08:59:00,
2013-10-13 04:04:00,50.3,46.6,30.22,SW,235,0.0,0.0,87,0.00,,CLR,0.00,VWS V14.01,2013-10-13 09:04:00,
2013-10-13 04:09:00,50.1,46.4,30.23,SW,235,0.0,0.0,87,0.00,,CLR,0.00,VWS V14.01,2013-10-13 09:09:00,
2013-10-13 04:14:00,50.0,46.3,30.23,SW,235,0.0,0.0,87,0.00,,CLR,0.00,VWS V14.01,2013-10-13 09:14:00,
2013-10-13 04:19:00,49.9,46.2,30.23,SW,235,0.0,0.0,87,0.00,,CLR,0.00,VWS V14.01,2013-10-13 09:19:00,
2013-10-13 04:24:00,49.8,46.1,30.23,SW,235,0.0,0.0,87,0.00,,CLR,0.00,VWS V14.01,2013-10-13 09:24:00,
2013-10-13 04:29:00,49.6,45.9,30.24,SW,235,0.0,0.0,87,0.00,,CLR,0.00,VWS V14.01,2013-10-13 09:29:00,
2013-10-13 04:34:00,49.4,45.7,30.24,SW,235,0.0,0.0,87,0.00,,CLR,0.00,VWS V14.01,2013-10-13 09:34:00,
2013-10-13 04:39:00,49.3,45.6,30.24,SW,235,0.0,0.0,87,0.00,,CLR,0.00,VWS V14.01,2013-10-13 09:39:00,
2013-10-13 04:44:00,49.2,45.5,30.24,SW,235,0.0,0.0,87,0.00,,CLR,0.00,VWS V14.01,2013-10-13 09:44:00,
2013-10-13 04:49:00,49.2,45.5,30.24,SW,235,0.0,0.0,87,0.00,,CLR,0.00,VWS V14.01,2013-10-13 09:49:00,
2013-10-13 04:54:00,49.1,45.4,30.24,SW,235,0.0,0.0,87,0.00,,CLR,0.00,VWS V14.01,2013-10-13 09:54:00,
2013-10-13 04:59:00,48.9,45.2,30.25,SW,235,0.0,0.0,87,0.00,,CLR,0.00,VWS V14.01,2013-10-13 09:59:00,
2013-10-13 05:04:00,48.8,45.1,30.25,SW,235,0.0,0.0,87,0.00,,CLR,0.00,VWS V14.01,2013-10-13 10:04:00,
2013-10-13 05:09:00,48.7,45.0,30.25,SW,235,0.0,0.0,87,0.00,,CLR,0.00,VWS V14.01,2013-10-13 10:09:00,
2013-10-13 05:14:00,48.5,44.8,30.25,SW,235,0.0,0.0,87,0.00,,CLR,0.00,VWS V14.01,2013-10-13 10:14:00,
2013-10-13 05:19:00,48.4,44.7,30.25,SW,235,0.0,0.0,87,0.00,,CLR,0.00,VWS V14.01,2013-10-13 10:19:00,
2013-10-13 05:24:00,48.2,44.5,30.25,SW,235,0.0,0.0,87,0.00,,CLR,0.00,VWS V14.01,2013-10-13 10:24:00,
2013-10-13 05:29:00,48.0,44.3,30.26,SW,235,0.0,0.0,87,0.00,,CLR,0.00,VWS V14.01,2013-10-13 10:29:00,
2013-10-13 05:34:00,47.9,44.2,30.26,SW,235,0.0,0.0,87,0.00,,CLR,0.00,VWS V14.01,2013-10-13 10:34:00,
2013-10-13 05:39:00,47.7,44.0,30.26,SW,235,0.0,0.0,87,0.00,,CLR,0.00,VWS V14.01,2013-10-13 10:39:00,
2013-10-13 05:44:00,47.6,43.9,30.27,SW,235,0.0,0.0,87,0.00,,CLR,0.00,VWS V14.01,2013-10-13 10:44:00,
2013-10-13 05:49:00,47.4,43.7,30.27,SW,235,0.0,0.0,87,0.00,,CLR,0.00,VWS V14.01,2013-10-13 10:49:00,
2013-10-13 05:54:00,47.3,43.6,30.27,SW,235,0.0,0.0,87,0.00,,CLR,0.00,VWS V14.01,2013-10-13 10:54:00,
2013-10-13 05:59:00,47.3,43.6,30.27,SW,235,0.0,0.0,87,0.00,,CLR,0.00,VWS V14.01,2013-10-13 10:59:00,
2013-10-13 06:04:00,47.2,43.5,30.27,SW,235,0.0,0.0,87,0.00,,CLR,0.00,VWS V14.01,2013-10-13 11:04:00,
2013-10-13 06:09:00,47.1,43.4,30.27,SW,235,0.0,0.0,87,0.00,,CLR,0.00,VWS V14.01,2013-10-13 11:09:00,
2013-10-13 06:14:00,47.0,43.3,30.27,SW,235,0.0,0.0,87,0.00,,CLR,0.00,VWS V14.01,2013-10-13 11:14:00,
2013-10-13 06:19:00,47.0,43.3,30.27,SW,235,0.0,0.0,87,0.00,,CLR,0.00,VWS V14.01,2013-10-13 11:19:00,
2013-10-13 06:24:00,47.0,43.3,30.27,SW,235,0.0,0.0,87,0.00,,CLR,0.00,VWS V14.01,2013-10-13 11:24:00,
2013-10-13 06:29:00,46.9,43.2,30.27,SW,235,0.0,0.0,87,0.00,,CLR,0.00,VWS V14.01,2013-10-13 11:29:00,
2013-10-13 06:34:00,46.9,43.2,30.27,SW,235,0.0,0.0,87,0.00,,CLR,0.00,VWS V14.01,2013-10-13 11:34:00,
2013-10-13 06:39:00,47.0,43.3,30.27,SW,235,0.0,0.0,87,0.00,,CLR,0.00,VWS V14.01,2013-10-13 11:39:00,
2013-10-13 06:44:00,47.1,43.4,30.28,SW,235,0.0,1.0,87,0.00,,CLR,0.00,VWS V14.01,2013-10-13 11:44:00,
2013-10-13 06:49:00,47.2,43.5,30.28,SW,235,0.0,1.0,87,0.00,,CLR,0.00,VWS V14.01,2013-10-13 11:49:00,
2013-10-13 06:54:00,47.2,43.5,30.28,SW,235,0.0,0.0,87,0.00,,CLR,0.00,VWS V14.01,2013-10-13 11:54:00,
2013-10-13 06:59:00,47.2,43.5,30.28,SW,235,0.0,0.0,87,0.00,,CLR,0.00,VWS V14.01,2013-10-13 11:59:00,
2013-10-13 07:04:00,47.3,43.6,30.29,SW,235,0.0,0.0,87,0.00,,CLR,0.00,VWS V14.01,2013-10-13 12:04:00,
2013-10-13 07:09:00,47.3,43.6,30.29,SW,235,0.0,0.0,87,0.00,,CLR,0.00,VWS V14.01,2013-10-13 12:09:00,
2013-10-13 07:14:00,47.4,43.7,30.29,SW,235,0.0,0.0,87,0.00,,CLR,0.00,VWS V14.01,2013-10-13 12:14:00,
2013-10-13 07:19:00,47.4,43.7,30.29,SW,235,0.0,0.0,87,0.00,,CLR,0.00,VWS V14.01,2013-10-13 12:19:00,
2013-10-13 07:24:00,47.4,43.7,30.30,SW,235,0.0,0.0,87,0.00,,CLR,0.00,VWS V14.01,2013-10-13 12:24:00,
2013-10-13 07:29:00,47.4,43.7,30.30,SW,235,0.0,0.0,87,0.00,,CLR,0.00,VWS V14.01,2013-10-13 12:29:00,
2013-10-13 07:34:00,47.5,43.8,30.30,SW,235,0.0,1.0,87,0.00,,CLR,0.00,VWS V14.01,2013-10-13 12:34:00,
2013-10-13 07:39:00,47.6,43.9,30.30,SW,235,0.0,1.0,87,0.00,,CLR,0.00,VWS V14.01,2013-10-13 12:39:00,
2013-10-13 07:44:00,47.6,43.9,30.30,WSW,237,0.0,2.0,87,0.00,,CLR,0.00,VWS V14.01,2013-10-13 12:44:00,
2013-10-13 07:49:00,47.7,44.0,30.30,WSW,237,0.0,2.0,87,0.00,,CLR,0.00,VWS V14.01,2013-10-13 12:49:00,
2013-10-13 07:54:00,47.9,44.2,30.30,WSW,237,0.0,0.0,87,0.00,,CLR,0.00,VWS V14.01,2013-10-13 12:54:00,
2013-10-13 07:59:00,48.1,44.4,30.30,WSW,237,0.0,0.0,87,0.00,,CLR,0.00,VWS V14.01,2013-10-13 12:59:00,
2013-10-13 08:04:00,48.5,44.8,30.31,WSW,238,0.0,2.0,87,0.00,,CLR,0.00,VWS V14.01,2013-10-13 13:04:00,
2013-10-13 08:09:00,49.0,45.3,30.30,WSW,238,0.0,2.0,87,0.00,,CLR,0.00,VWS V14.01,2013-10-13 13:09:00,
2013-10-13 08:14:00,49.6,45.9,30.31,WSW,238,0.0,0.0,87,0.00,,CLR,0.00,VWS V14.01,2013-10-13 13:14:00,
2013-10-13 08:19:00,50.2,46.5,30.31,WSW,238,0.0,0.0,87,0.00,,CLR,0.00,VWS V14.01,2013-10-13 13:19:00,
2013-10-13 08:24:00,50.8,46.8,30.32,WSW,238,0.0,1.0,86,0.00,,CLR,0.00,VWS V14.01,2013-10-13 13:24:00,
2013-10-13 08:29:00,51.5,47.5,30.32,WSW,238,0.0,1.0,86,0.00,,CLR,0.00,VWS V14.01,2013-10-13 13:29:00,
2013-10-13 08:34:00,52.3,47.6,30.32,WSW,238,0.0,0.0,84,0.00,,CLR,0.00,VWS V14.01,2013-10-13 13:34:00,
2013-10-13 08:39:00,53.2,48.2,30.32,WSW,238,0.0,2.0,83,0.00,,CLR,0.00,VWS V14.01,2013-10-13 13:39:00,
2013-10-13 08:44:00,53.9,48.2,30.33,WSW,238,0.0,2.0,81,0.00,,CLR,0.00,VWS V14.01,2013-10-13 13:44:00,
2013-10-13 08:49:00,54.6,48.6,30.33,WSW,238,0.0,2.0,80,0.00,,CLR,0.00,VWS V14.01,2013-10-13 13:49:00,
2013-10-13 08:54:00,55.3,48.9,30.33,WSW,238,0.0,1.0,79,0.00,,CLR,0.00,VWS V14.01,2013-10-13 13:54:00,
2013-10-13 08:59:00,55.9,49.2,30.33,WSW,242,0.0,3.0,78,0.00,,CLR,0.00,VWS V14.01,2013-10-13 13:59:00,
2013-10-13 09:04:00,56.5,49.4,30.33,WSW,242,0.0,1.0,77,0.00,,CLR,0.00,VWS V14.01,2013-10-13 14:04:00,
2013-10-13 09:10:00,56.9,49.1,30.34,WSW,242,0.0,1.0,75,0.00,,CLR,0.00,VWS V14.01,2013-10-13 14:10:00,
2013-10-13 09:15:00,58.2,50.3,30.34,WSW,242,0.0,1.0,75,0.00,,CLR,0.00,VWS V14.01,2013-10-13 14:15:00,
2013-10-13 09:20:00,59.1,50.5,30.34,ENE,77,0.0,3.0,73,0.00,,CLR,0.00,VWS V14.01,2013-10-13 14:20:00,
2013-10-13 09:25:00,59.7,50.7,30.34,NE,53,0.0,1.0,72,0.00,,CLR,0.00,VWS V14.01,2013-10-13 14:25:00,
2013-10-13 09:30:00,60.4,50.6,30.34,NE,53,0.0,1.0,70,0.00,,CLR,0.00,VWS V14.01,2013-10-13 14:30:00,
2013-10-13 09:35:00,60.9,50.3,30.34,NE,51,0.0,1.0,68,0.00,,CLR,0.00,VWS V14.01,2013-10-13 14:35:00,
2013-10-13 09:40:00,61.4,50.0,30.34,NE,36,0.0,2.0,66,0.00,,CLR,0.00,VWS V14.01,2013-10-13 14:40:00,
2013-10-13 09:45:00,61.6,49.7,30.34,East,89,5.0,5.0,65,0.00,,CLR,0.00,VWS V14.01,2013-10-13 14:45:00,
2013-10-13 09:50:00,62.0,50.1,30.34,NE,53,4.0,6.0,65,0.00,,CLR,0.00,VWS V14.01,2013-10-13 14:50:00,
2013-10-13 09:55:00,62.4,49.2,30.34,NE,55,0.0,5.0,62,0.00,,CLR,0.00,VWS V14.01,2013-10-13 14:55:00,
2013-10-13 10:00:00,62.9,48.8,30.34,ENE,57,2.0,5.0,60,0.00,,CLR,0.00,VWS V14.01,2013-10-13 15:00:00,
2013-10-13 10:05:00,63.5,49.4,30.34,NE,51,1.0,1.0,60,0.00,,CLR,0.00,VWS V14.01,2013-10-13 15:05:00,
2013-10-13 10:10:00,63.9,49.3,30.34,ENE,71,0.0,4.0,59,0.00,,CLR,0.00,VWS V14.01,2013-10-13 15:10:00,
2013-10-13 10:15:00,64.4,50.2,30.34,ENE,59,0.0,1.0,60,0.00,,CLR,0.00,VWS V14.01,2013-10-13 15:15:00,
2013-10-13 10:20:00,65.1,49.0,30.34,North,9,0.0,3.0,56,0.00,,CLR,0.00,VWS V14.01,2013-10-13 15:20:00,
2013-10-13 10:25:00,65.1,47.6,30.34,ENE,65,0.0,3.0,53,0.00,,CLR,0.00,VWS V14.01,2013-10-13 15:25:00,
2013-10-13 10:30:00,65.4,48.8,30.34,ENE,67,0.0,3.0,55,0.00,,CLR,0.00,VWS V14.01,2013-10-13 15:30:00,
2013-10-13 10:35:00,66.2,48.1,30.34,East,80,1.0,3.0,52,0.00,,CLR,0.00,VWS V14.01,2013-10-13 15:35:00,
2013-10-13 10:40:00,67.0,49.3,30.35,ENE,74,4.0,4.0,53,0.00,,CLR,0.00,VWS V14.01,2013-10-13 15:40:00,
2013-10-13 10:45:00,66.8,47.0,30.34,ENE,63,3.0,7.0,49,0.00,,CLR,0.00,VWS V14.01,2013-10-13 15:45:00,
2013-10-13 10:50:00,66.8,46.5,30.35,NE,49,0.0,11.0,48,0.00,,CLR,0.00,VWS V14.01,2013-10-13 15:50:00,
2013-10-13 10:55:00,66.9,45.5,30.35,North,5,0.0,7.0,46,0.00,,CLR,0.00,VWS V14.01,2013-10-13 15:55:00,
2013-10-13 11:00:00,67.6,47.2,30.35,NE,49,2.0,7.0,48,0.00,,CLR,0.00,VWS V14.01,2013-10-13 16:00:00,
2013-10-13 11:05:00,67.2,45.2,30.34,East,84,3.0,7.0,45,0.00,,CLR,0.00,VWS V14.01,2013-10-13 16:05:00,
2013-10-13 11:10:00,67.5,46.0,30.34,ENE,63,4.0,8.0,46,0.00,,CLR,0.00,VWS V14.01,2013-10-13 16:10:00,
2013-10-13 11:15:00,67.6,45.5,30.35,East,84,1.0,5.0,45,0.00,,CLR,0.00,VWS V14.01,2013-10-13 16:15:00,
2013-10-13 11:20:00,68.0,45.9,30.34,ENE,77,0.0,11.0,45,0.00,,CLR,0.00,VWS V14.01,2013-10-13 16:20:00,
2013-10-13 11:25:00,68.5,45.1,30.34,NNE,16,0.0,10.0,43,0.00,,CLR,0.00,VWS V14.01,2013-10-13 16:25:00,
2013-10-13 11:30:00,68.6,44.0,30.34,NNE,19,0.0,10.0,41,0.00,,CLR,0.00,VWS V14.01,2013-10-13 16:30:00,
2013-10-13 11:35:00,69.1,44.4,30.34,East,90,1.0,7.0,41,0.00,,CLR,0.00,VWS V14.01,2013-10-13 16:35:00,
2013-10-13 11:40:00,68.9,44.2,30.33,ENE,62,0.0,7.0,41,0.00,,CLR,0.00,VWS V14.01,2013-10-13 16:40:00,
2013-10-13 11:45:00,69.2,44.5,30.33,ENE,69,2.0,5.0,41,0.00,,CLR,0.00,VWS V14.01,2013-10-13 16:45:00,
2013-10-13 11:50:00,68.6,43.3,30.33,ENE,72,1.0,10.0,40,0.00,,CLR,0.00,VWS V14.01,2013-10-13 16:50:00,
2013-10-13 11:55:00,69.4,44.1,30.33,ENE,59,0.0,4.0,40,0.00,,CLR,0.00,VWS V14.01,2013-10-13 16:55:00,
2013-10-13 12:00:00,70.0,42.6,30.33,SE,126,5.0,8.0,37,0.00,,CLR,0.00,VWS V14.01,2013-10-13 17:00:00,
2013-10-13 12:05:00,69.8,41.7,30.33,ENE,63,4.0,7.0,36,0.00,,CLR,0.00,VWS V14.01,2013-10-13 17:05:00,
2013-10-13 12:10:00,70.0,44.6,30.33,ENE,73,3.0,7.0,40,0.00,,CLR,0.00,VWS V14.01,2013-10-13 17:10:00,
2013-10-13 12:15:00,70.4,45.6,30.33,North,355,0.0,8.0,41,0.00,,CLR,0.00,VWS V14.01,2013-10-13 17:15:00,
2013-10-13 12:20:00,71.2,43.6,30.33,NNW,344,0.0,8.0,37,0.00,,CLR,0.00,VWS V14.01,2013-10-13 17:20:00,
2013-10-13 12:25:00,71.3,44.4,30.33,ENE,61,0.0,4.0,38,0.00,,CLR,0.00,VWS V14.01,2013-10-13 17:25:00,
2013-10-13 12:30:00,71.5,43.9,30.33,ENE,59,7.0,7.0,37,0.00,,CLR,0.00,VWS V14.01,2013-10-13 17:30:00,
2013-10-13 12:35:00,71.2,45.0,30.32,NNE,25,0.0,3.0,39,0.00,,CLR,0.00,VWS V14.01,2013-10-13 17:35:00,
2013-10-13 12:40:00,70.6,43.1,30.32,NNE,20,0.0,7.0,37,0.00,,CLR,0.00,VWS V14.01,2013-10-13 17:40:00,
2013-10-13 12:45:00,71.0,44.1,30.32,North,351,0.0,3.0,38,0.00,,CLR,0.00,VWS V14.01,2013-10-13 17:45:00,
2013-10-13 12:50:00,71.5,43.9,30.32,North,349,1.0,3.0,37,0.00,,CLR,0.00,VWS V14.01,2013-10-13 17:50:00,
2013-10-13 12:55:00,72.2,45.2,30.32,NNE,29,0.0,6.0,38,0.00,,CLR,0.00,VWS V14.01,2013-10-13 17:55:00,
2013-10-13 13:00:00,72.0,42.9,30.31,NW,321,0.0,6.0,35,0.00,,CLR,0.00,VWS V14.01,2013-10-13 18:00:00,
2013-10-13 13:05:00,71.7,44.1,30.31,ENE,76,0.0,6.0,37,0.00,,CLR,0.00,VWS V14.01,2013-10-13 18:05:00,
2013-10-13 13:10:00,71.9,43.5,30.31,ESE,111,0.0,6.0,36,0.00,,CLR,0.00,VWS V14.01,2013-10-13 18:10:00,
2013-10-13 13:15:00,71.8,44.2,30.31,ENE,65,0.0,7.0,37,0.00,,CLR,0.00,VWS V14.01,2013-10-13 18:15:00,
2013-10-13 13:20:00,71.6,44.0,30.31,East,90,0.0,7.0,37,0.00,,CLR,0.00,VWS V14.01,2013-10-13 18:20:00,
2013-10-13 13:25:00,72.7,46.3,30.30,ESE,107,0.0,1.0,39,0.00,,CLR,0.00,VWS V14.01,2013-10-13 18:25:00,
2013-10-13 13:30:00,73.5,44.9,30.30,East,88,0.0,4.0,36,0.00,,CLR,0.00,VWS V14.01,2013-10-13 18:30:00,
2013-10-13 13:35:00,73.6,43.5,30.30,ENE,78,2.0,4.0,34,0.00,,CLR,0.00,VWS V14.01,2013-10-13 18:35:00,
2013-10-13 13:40:00,73.3,45.5,30.29,East,83,0.0,5.0,37,0.00,,CLR,0.00,VWS V14.01,2013-10-13 18:40:00,
2013-10-13 13:45:00,73.4,43.3,30.29,NE,46,0.0,2.0,34,0.00,,CLR,0.00,VWS V14.01,2013-10-13 18:45:00,
2013-10-13 13:50:00,73.2,43.9,30.29,ENE,78,1.0,3.0,35,0.00,,CLR,0.00,VWS V14.01,2013-10-13 18:50:00,
2013-10-13 13:55:00,73.0,43.8,30.29,NNE,20,0.0,3.0,35,0.00,,CLR,0.00,VWS V14.01,2013-10-13 18:55:00,
2013-10-13 14:00:00,72.7,43.5,30.29,NNE,22,1.0,3.0,35,0.00,,CLR,0.00,VWS V14.01,2013-10-13 19:00:00,
2013-10-13 14:05:00,72.6,43.4,30.29,NNE,17,0.0,3.0,35,0.00,,CLR,0.00,VWS V14.01,2013-10-13 19:05:00,
2013-10-13 14:10:00,72.4,43.2,30.29,NNE,16,0.0,3.0,35,0.00,,CLR,0.00,VWS V14.01,2013-10-13 19:10:00,
2013-10-13 14:15:00,72.6,44.1,30.29,West,275,0.0,4.0,36,0.00,,CLR,0.00,VWS V14.01,2013-10-13 19:15:00,
2013-10-13 14:20:00,73.0,43.8,30.29,West,275,0.0,4.0,35,0.00,,CLR,0.00,VWS V14.01,2013-10-13 19:20:00,
2013-10-13 14:25:00,73.0,43.8,30.29,WNW,290,0.0,3.0,35,0.00,,CLR,0.00,VWS V14.01,2013-10-13 19:25:00,
2013-10-13 14:30:00,73.1,46.0,30.29,WNW,291,0.0,3.0,38,0.00,,CLR,0.00,VWS V14.01,2013-10-13 19:30:00,
2013-10-13 14:35:00,73.5,43.4,30.29,WNW,292,1.0,2.0,34,0.00,,CLR,0.00,VWS V14.01,2013-10-13 19:35:00,
2013-10-13 14:40:00,73.6,45.0,30.29,WSW,249,2.0,2.0,36,0.00,,CLR,0.00,VWS V14.01,2013-10-13 19:40:00,
2013-10-13 14:45:00,73.3,43.3,30.28,WSW,249,1.0,1.0,34,0.00,,CLR,0.00,VWS V14.01,2013-10-13 19:45:00,
2013-10-13 14:50:00,73.1,43.1,30.28,WSW,249,0.0,2.0,34,0.00,,CLR,0.00,VWS V14.01,2013-10-13 19:50:00,
2013-10-13 14:55:00,73.4,44.8,30.28,WSW,249,0.0,2.0,36,0.00,,CLR,0.00,VWS V14.01,2013-10-13 19:55:00,
2013-10-13 15:00:00,73.3,42.5,30.28,WSW,247,0.0,2.0,33,0.00,,CLR,0.00,VWS V14.01,2013-10-13 20:00:00,
2013-10-13 15:05:00,73.4,44.1,30.28,WSW,251,2.0,3.0,35,0.00,,CLR,0.00,VWS V14.01,2013-10-13 20:05:00,
2013-10-13 15:10:00,73.5,42.7,30.28,WSW,252,0.0,3.0,33,0.00,,CLR,0.00,VWS V14.01,2013-10-13 20:10:00,
2013-10-13 15:15:00,73.6,43.5,30.27,WSW,257,0.0,2.0,34,0.00,,CLR,0.00,VWS V14.01,2013-10-13 20:15:00,
2013-10-13 15:20:00,73.6,42.8,30.28,NNW,337,0.0,5.0,33,0.00,,CLR,0.00,VWS V14.01,2013-10-13 20:20:00,
2013-10-13 15:25:00,73.9,44.5,30.27,NNW,337,0.0,2.0,35,0.00,,CLR,0.00,VWS V14.01,2013-10-13 20:25:00,
2013-10-13 15:30:00,73.8,44.5,30.27,East,86,0.0,5.0,35,0.00,,CLR,0.00,VWS V14.01,2013-10-13 20:30:00,
2013-10-13 15:35:00,74.1,44.0,30.27,NE,52,0.0,1.0,34,0.00,,CLR,0.00,VWS V14.01,2013-10-13 20:35:00,
2013-10-13 15:40:00,74.0,43.1,30.27,North,11,0.0,4.0,33,0.00,,CLR,0.00,VWS V14.01,2013-10-13 20:40:00,
2013-10-13 15:45:00,73.7,42.8,30.27,North,355,0.0,3.0,33,0.00,,CLR,0.00,VWS V14.01,2013-10-13 20:45:00,
2013-10-13 15:50:00,73.7,43.6,30.27,North,360,0.0,3.0,34,0.00,,CLR,0.00,VWS V14.01,2013-10-13 20:50:00,
2013-10-13 15:55:00,73.5,42.7,30.27,North,360,0.0,2.0,33,0.00,,CLR,0.00,VWS V14.01,2013-10-13 20:55:00,
2013-10-13 16:00:00,73.2,43.9,30.27,NE,38,0.0,3.0,35,0.00,,CLR,0.00,VWS V14.01,2013-10-13 21:00:00,
2013-10-13 16:05:00,72.8,42.0,30.27,North,360,0.0,5.0,33,0.00,,CLR,0.00,VWS V14.01,2013-10-13 21:05:00,
2013-10-13 16:10:00,72.8,42.8,30.27,North,360,0.0,5.0,34,0.00,,CLR,0.00,VWS V14.01,2013-10-13 21:10:00,
2013-10-13 16:15:00,73.1,43.8,30.27,North,360,0.0,0.0,35,0.00,,CLR,0.00,VWS V14.01,2013-10-13 21:15:00,
2013-10-13 16:20:00,73.2,46.1,30.27,ENE,67,0.0,2.0,38,0.00,,CLR,0.00,VWS V14.01,2013-10-13 21:20:00,
2013-10-13 16:25:00,73.0,43.8,30.27,North,5,0.0,3.0,35,0.00,,CLR,0.00,VWS V14.01,2013-10-13 21:25:00,
2013-10-13 16:30:00,72.9,44.4,30.26,NNE,15,2.0,3.0,36,0.00,,CLR,0.00,VWS V14.01,2013-10-13 21:30:00,
2013-10-13 16:35:00,72.4,44.0,30.26,North,355,0.0,4.0,36,0.00,,CLR,0.00,VWS V14.01,2013-10-13 21:35:00,
2013-10-13 16:40:00,72.7,44.2,30.26,NNE,23,0.0,4.0,36,0.00,,CLR,0.00,VWS V14.01,2013-10-13 21:40:00,
2013-10-13 16:45:00,72.8,44.3,30.26,NNE,22,0.0,1.0,36,0.00,,CLR,0.00,VWS V14.01,2013-10-13 21:45:00,
2013-10-13 16:50:00,72.6,46.2,30.26,NNE,22,0.0,1.0,39,0.00,,CLR,0.00,VWS V14.01,2013-10-13 21:50:00,
2013-10-13 16:55:00,72.6,44.9,30.26,NNE,22,0.0,1.0,37,0.00,,CLR,0.00,VWS V14.01,2013-10-13 21:55:00,
2013-10-13 17:00:00,72.3,43.9,30.26,North,355,0.0,5.0,36,0.00,,CLR,0.00,VWS V14.01,2013-10-13 22:00:00,
2013-10-13 17:05:00,72.1,45.1,30.26,NNW,348,0.0,2.0,38,0.00,,CLR,0.00,VWS V14.01,2013-10-13 22:05:00,
2013-10-13 17:10:00,72.1,44.4,30.26,NNW,348,0.0,2.0,37,0.00,,CLR,0.00,VWS V14.01,2013-10-13 22:10:00,
2013-10-13 17:15:00,71.8,44.8,30.26,North,355,0.0,1.0,38,0.00,,CLR,0.00,VWS V14.01,2013-10-13 22:15:00,
2013-10-13 17:20:00,71.2,45.7,30.26,NE,43,0.0,2.0,40,0.00,,CLR,0.00,VWS V14.01,2013-10-13 22:20:00,
2013-10-13 17:25:00,71.1,46.2,30.26,NE,43,0.0,0.0,41,0.00,,CLR,0.00,VWS V14.01,2013-10-13 22:25:00,
2013-10-13 17:30:00,71.0,47.4,30.26,NE,43,0.0,0.0,43,0.00,,CLR,0.00,VWS V14.01,2013-10-13 22:30:00,
2013-10-13 17:35:00,70.4,46.9,30.26,NE,43,0.0,0.0,43,0.00,,CLR,0.00,VWS V14.01,2013-10-13 22:35:00,
2013-10-13 17:40:00,70.0,46.5,30.26,NE,43,0.0,0.0,43,0.00,,CLR,0.00,VWS V14.01,2013-10-13 22:40:00,
2013-10-13 17:45:00,69.7,47.4,30.26,NE,43,0.0,0.0,45,0.00,,CLR,0.00,VWS V14.01,2013-10-13 22:45:00,
2013-10-13 17:50:00,69.4,47.2,30.26,NE,43,0.0,0.0,45,0.00,,CLR,0.00,VWS V14.01,2013-10-13 22:50:00,
2013-10-13 17:55:00,69.0,46.8,30.26,NE,43,0.0,0.0,45,0.00,,CLR,0.00,VWS V14.01,2013-10-13 22:55:00,
2013-10-13 18:00:00,68.5,46.3,30.26,NE,43,0.0,0.0,45,0.00,,CLR,0.00,VWS V14.01,2013-10-13 23:00:00,
2013-10-13 18:05:00,67.9,46.4,30.27,NE,43,0.0,0.0,46,0.00,,CLR,0.00,VWS V14.01,2013-10-13 23:05:00,
2013-10-13 18:10:00,67.4,46.5,30.27,NE,43,0.0,0.0,47,0.00,,CLR,0.00,VWS V14.01,2013-10-13 23:10:00,
2013-10-13 18:15:00,66.9,46.0,30.27,NE,43,0.0,0.0,47,0.00,,CLR,0.00,VWS V14.01,2013-10-13 23:15:00,
2013-10-13 18:20:00,66.4,46.7,30.26,NE,43,0.0,0.0,49,0.00,,CLR,0.00,VWS V14.01,2013-10-13 23:20:00,
2013-10-13 18:25:00,65.7,46.6,30.27,NE,43,0.0,0.0,50,0.00,,CLR,0.00,VWS V14.01,2013-10-13 23:25:00,
2013-10-13 18:30:00,65.1,46.5,30.27,NE,43,0.0,0.0,51,0.00,,CLR,0.00,VWS V14.01,2013-10-13 23:30:00,
2013-10-13 18:35:00,64.4,46.4,30.27,NE,43,0.0,0.0,52,0.00,,CLR,0.00,VWS V14.01,2013-10-13 23:35:00,
2013-10-13 18:40:00,63.8,46.4,30.27,NE,43,0.0,0.0,53,0.00,,CLR,0.00,VWS V14.01,2013-10-13 23:40:00,
2013-10-13 18:46:00,63.3,46.9,30.27,NE,43,0.0,0.0,55,0.00,,CLR,0.00,VWS V14.01,2013-10-13 23:46:00,
2013-10-13 18:51:00,62.7,46.8,30.27,NE,43,0.0,0.0,56,0.00,,CLR,0.00,VWS V14.01,2013-10-13 23:51:00,
2013-10-13 18:56:00,62.1,46.7,30.28,NE,43,0.0,0.0,57,0.00,,CLR,0.00,VWS V14.01,2013-10-13 23:56:00,
2013-10-13 19:01:00,61.6,46.2,30.27,NE,43,0.0,0.0,57,0.00,,CLR,0.00,VWS V14.01,2013-10-14 00:01:00,
2013-10-13 19:06:00,61.0,46.6,30.27,NE,43,0.0,0.0,59,0.00,,CLR,0.00,VWS V14.01,2013-10-14 00:06:00,
2013-10-13 19:11:00,60.6,46.7,30.28,NE,43,0.0,0.0,60,0.00,,CLR,0.00,VWS V14.01,2013-10-14 00:11:00,
2013-10-13 19:16:00,60.1,46.6,30.28,NE,43,0.0,0.0,61,0.00,,CLR,0.00,VWS V14.01,2013-10-14 00:16:00,
2013-10-13 19:21:00,59.7,47.1,30.28,NE,43,0.0,0.0,63,0.00,,CLR,0.00,VWS V14.01,2013-10-14 00:21:00,
2013-10-13 19:26:00,59.3,46.3,30.28,NE,43,0.0,0.0,62,0.00,,CLR,0.00,VWS V14.01,2013-10-14 00:26:00,
2013-10-13 19:31:00,58.9,46.8,30.28,NE,43,0.0,0.0,64,0.00,,CLR,0.00,VWS V14.01,2013-10-14 00:31:00,
2013-10-13 19:36:00,58.6,46.9,30.28,NE,43,0.0,0.0,65,0.00,,CLR,0.00,VWS V14.01,2013-10-14 00:36:00,
2013-10-13 19:41:00,58.3,46.6,30.28,NE,43,0.0,0.0,65,0.00,,CLR,0.00,VWS V14.01,2013-10-14 00:41:00,
2013-10-13 19:46:00,58.0,46.7,30.28,NE,43,0.0,0.0,66,0.00,,CLR,0.00,VWS V14.01,2013-10-14 00:46:00,
2013-10-13 19:51:00,57.7,46.4,30.29,NE,43,0.0,0.0,66,0.00,,CLR,0.00,VWS V14.01,2013-10-14 00:51:00,
2013-10-13 19:56:00,57.4,46.5,30.29,NE,43,0.0,0.0,67,0.00,,CLR,0.00,VWS V14.01,2013-10-14 00:56:00,
2013-10-13 20:01:00,57.2,47.1,30.29,NE,43,0.0,0.0,69,0.00,,CLR,0.00,VWS V14.01,2013-10-14 01:01:00,
2013-10-13 20:06:00,56.9,46.8,30.29,NE,43,0.0,0.0,69,0.00,,CLR,0.00,VWS V14.01,2013-10-14 01:06:00,
2013-10-13 20:11:00,56.7,46.7,30.29,NE,43,0.0,0.0,69,0.00,,CLR,0.00,VWS V14.01,2013-10-14 01:11:00,
2013-10-13 20:16:00,56.5,47.2,30.30,NE,43,0.0,0.0,71,0.00,,CLR,0.00,VWS V14.01,2013-10-14 01:16:00,
2013-10-13 20:21:00,56.2,46.9,30.30,NE,43,0.0,0.0,71,0.00,,CLR,0.00,VWS V14.01,2013-10-14 01:21:00,
2013-10-13 20:26:00,56.0,46.7,30.30,NE,43,0.0,0.0,71,0.00,,CLR,0.00,VWS V14.01,2013-10-14 01:26:00,
2013-10-13 20:31:00,55.8,46.5,30.30,NE,43,0.0,0.0,71,0.00,,CLR,0.00,VWS V14.01,2013-10-14 01:31:00,
2013-10-13 20:36:00,55.6,46.7,30.30,NE,43,0.0,0.0,72,0.00,,CLR,0.00,VWS V14.01,2013-10-14 01:36:00,
2013-10-13 20:41:00,55.5,47.0,30.30,NE,43,0.0,0.0,73,0.00,,CLR,0.00,VWS V14.01,2013-10-14 01:41:00,
2013-10-13 20:46:00,55.3,46.8,30.30,NE,43,0.0,0.0,73,0.00,,CLR,0.00,VWS V14.01,2013-10-14 01:46:00,
2013-10-13 20:51:00,55.0,46.5,30.30,NE,43,0.0,0.0,73,0.00,,CLR,0.00,VWS V14.01,2013-10-14 01:51:00,
2013-10-13 20:56:00,54.9,46.1,30.31,NE,43,0.0,0.0,72,0.00,,CLR,0.00,VWS V14.01,2013-10-14 01:56:00,
2013-10-13 21:01:00,54.8,46.3,30.31,NE,43,0.0,0.0,73,0.00,,CLR,0.00,VWS V14.01,2013-10-14 02:01:00,
2013-10-13 21:06:00,54.7,46.2,30.31,NE,43,0.0,0.0,73,0.00,,CLR,0.00,VWS V14.01,2013-10-14 02:06:00,
2013-10-13 21:11:00,54.6,46.1,30.31,NE,43,0.0,0.0,73,0.00,,CLR,0.00,VWS V14.01,2013-10-14 02:11:00,
2013-10-13 21:16:00,54.5,46.0,30.31,NE,43,0.0,0.0,73,0.00,,CLR,0.00,VWS V14.01,2013-10-14 02:16:00,
2013-10-13 21:21:00,54.4,45.9,30.31,NE,43,0.0,0.0,73,0.00,,CLR,0.00,VWS V14.01,2013-10-14 02:21:00,
2013-10-13 21:26:00,54.3,45.8,30.31,NE,43,0.0,0.0,73,0.00,,CLR,0.00,VWS V14.01,2013-10-14 02:26:00,
2013-10-13 21:31:00,54.2,45.4,30.31,NE,43,0.0,0.0,72,0.00,,CLR,0.00,VWS V14.01,2013-10-14 02:31:00,
2013-10-13 21:36:00,54.0,45.2,30.31,NE,43,0.0,0.0,72,0.00,,CLR,0.00,VWS V14.01,2013-10-14 02:36:00,
2013-10-13 21:41:00,54.0,44.8,30.31,NE,43,0.0,0.0,71,0.00,,CLR,0.00,VWS V14.01,2013-10-14 02:41:00,
2013-10-13 21:46:00,54.0,44.5,30.31,NE,43,0.0,0.0,70,0.00,,CLR,0.00,VWS V14.01,2013-10-14 02:46:00,
2013-10-13 21:51:00,54.0,44.5,30.30,NE,43,0.0,0.0,70,0.00,,CLR,0.00,VWS V14.01,2013-10-14 02:51:00,
2013-10-13 21:56:00,54.1,44.2,30.31,NE,43,0.0,1.0,69,0.00,,CLR,0.00,VWS V14.01,2013-10-14 02:56:00,
2013-10-13 22:01:00,54.1,44.2,30.30,NE,43,0.0,1.0,69,0.00,,CLR,0.00,VWS V14.01,2013-10-14 03:01:00,
2013-10-13 22:06:00,54.1,43.8,30.30,NE,43,0.0,2.0,68,0.00,,CLR,0.00,VWS V14.01,2013-10-14 03:06:00,
2013-10-13 22:11:00,54.3,43.6,30.30,NE,43,0.0,2.0,67,0.00,,CLR,0.00,VWS V14.01,2013-10-14 03:11:00,
2013-10-13 22:16:00,54.5,43.0,30.30,NE,43,0.0,0.0,65,0.00,,CLR,0.00,VWS V14.01,2013-10-14 03:16:00,
2013-10-13 22:21:00,54.7,42.8,30.30,NE,43,0.0,0.0,64,0.00,,CLR,0.00,VWS V14.01,2013-10-14 03:21:00,
2013-10-13 22:26:00,54.9,43.0,30.30,NE,43,0.0,0.0,64,0.00,,CLR,0.00,VWS V14.01,2013-10-14 03:26:00,
2013-10-13 22:31:00,54.9,42.6,30.30,NE,43,0.0,0.0,63,0.00,,CLR,0.00,VWS V14.01,2013-10-14 03:31:00,
2013-10-13 22:36:00,54.8,42.5,30.30,NE,43,0.0,0.0,63,0.00,,CLR,0.00,VWS V14.01,2013-10-14 03:36:00,
2013-10-13 22:41:00,54.6,42.7,30.30,NE,43,0.0,0.0,64,0.00,,CLR,0.00,VWS V14.01,2013-10-14 03:41:00,
2013-10-13 22:46:00,54.4,42.5,30.30,NE,43,0.0,0.0,64,0.00,,CLR,0.00,VWS V14.01,2013-10-14 03:46:00,
2013-10-13 22:51:00,54.2,42.3,30.30,NE,43,0.0,0.0,64,0.00,,CLR,0.00,VWS V14.01,2013-10-14 03:51:00,
2013-10-13 22:56:00,54.0,42.1,30.30,NE,43,0.0,0.0,64,0.00,,CLR,0.00,VWS V14.01,2013-10-14 03:56:00,
2013-10-13 23:01:00,53.9,42.4,30.30,NE,43,0.0,0.0,65,0.00,,CLR,0.00,VWS V14.01,2013-10-14 04:01:00,
2013-10-13 23:11:00,53.6,41.7,30.30,NE,45,0.0,2.0,64,0.00,,CLR,0.00,VWS V14.01,2013-10-14 04:11:00,
2013-10-13 23:21:00,53.6,41.7,30.30,NE,45,0.0,1.0,64,0.00,,CLR,0.00,VWS V14.01,2013-10-14 04:21:00,
2013-10-13 23:26:00,53.5,41.6,30.30,NE,45,0.0,0.0,64,0.00,,CLR,0.00,VWS V14.01,2013-10-14 04:26:00,
2013-10-13 23:31:00,53.4,41.5,30.30,NE,45,0.0,0.0,64,0.00,,CLR,0.00,VWS V14.01,2013-10-14 04:31:00,
2013-10-13 23:36:00,53.3,41.0,30.30,NE,45,0.0,0.0,63,0.00,,CLR,0.00,VWS V14.01,2013-10-14 04:36:00,
2013-10-13 23:41:00,53.2,41.0,30.30,NE,45,0.0,0.0,63,0.00,,CLR,0.00,VWS V14.01,2013-10-14 04:41:00,
2013-10-13 23:46:00,53.1,40.8,30.30,NE,45,0.0,0.0,63,0.00,,CLR,0.00,VWS V14.01,2013-10-14 04:46:00,
2013-10-13 23:51:00,53.0,40.8,30.30,NE,45,0.0,0.0,63,0.00,,CLR,0.00,VWS V14.01,2013-10-14 04:51:00,
2013-10-13 23:56:00,53.0,40.8,30.30,NE,45,0.0,1.0,63,0.00,,CLR,0.00,VWS V14.01,2013-10-14 04:56:00,